Time,TemperatureF,DewpointF,PressureIn,WindDirection,WindDirectionDegrees,WindSpeedMPH,WindSpeedGustMPH,Humidity,HourlyPrecipIn,Conditions,Clouds,dailyrainin,SoftwareType,DateUTC
2013-10-03 00:02:00,68.7,66.6,29.90,SSW,202,0.0,0.0,93,0.00,,---,0.12,VWS V14.01,2013-10-03 05:02:00,
2013-10-03 00:07:00,68.7,66.6,29.90,SSW,202,0.0,0.0,93,0.00,,---,0.00,VWS V14.01,2013-10-03 05:07:00,
2013-10-03 00:12:00,68.6,66.8,29.90,SSW,202,0.0,0.0,94,0.00,,---,0.00,VWS V14.01,2013-10-03 05:12:00,
2013-10-03 00:17:00,68.5,66.4,29.90,SSW,202,0.0,0.0,93,0.00,,---,0.00,VWS V14.01,2013-10-03 05:17:00,
2013-10-03 00:22:00,68.5,66.7,29.90,SSW,202,0.0,0.0,94,0.00,,---,0.00,VWS V14.01,2013-10-03 05:22:00,
2013-10-03 00:27:00,68.4,66.6,29.90,SSW,202,0.0,0.0,94,0.00,,---,0.00,VWS V14.01,2013-10-03 05:27:00,
2013-10-03 00:32:00,68.4,66.6,29.90,SSW,202,0.0,0.0,94,0.00,,---,0.00,VWS V14.01,2013-10-03 05:32:00,
2013-10-03 00:37:00,68.4,66.6,29.90,SSW,202,0.0,0.0,94,0.00,,---,0.00,VWS V14.01,2013-10-03 05:37:00,
2013-10-03 00:42:00,68.5,66.7,29.90,SSW,202,0.0,1.0,94,0.00,,---,0.00,VWS V14.01,2013-10-03 05:42:00,
2013-10-03 00:47:00,68.6,66.8,29.89,SSW,202,0.0,1.0,94,0.00,,---,0.00,VWS V14.01,2013-10-03 05:47:00,
2013-10-03 00:52:00,68.7,66.9,29.89,SSW,202,0.0,1.0,94,0.00,,---,0.00,VWS V14.01,2013-10-03 05:52:00,
2013-10-03 00:57:00,68.7,66.9,29.89,SSW,202,0.0,1.0,94,0.00,,---,0.00,VWS V14.01,2013-10-03 05:57:00,
2013-10-03 01:02:00,68.7,66.9,29.90,SSW,202,0.0,1.0,94,0.00,,---,0.00,VWS V14.01,2013-10-03 06:02:00,
2013-10-03 01:07:00,68.7,67.2,29.90,SSW,202,0.0,0.0,95,0.00,,---,0.00,VWS V14.01,2013-10-03 06:07:00,
2013-10-03 01:12:00,68.8,67.3,29.90,SSW,202,0.0,0.0,95,0.00,,---,0.00,VWS V14.01,2013-10-03 06:12:00,
2013-10-03 01:17:00,68.8,67.3,29.90,SSW,202,0.0,0.0,95,0.00,,---,0.00,VWS V14.01,2013-10-03 06:17:00,
2013-10-03 01:22:00,69.0,67.5,29.90,South,176,0.0,1.0,95,0.00,,---,0.00,VWS V14.01,2013-10-03 06:22:00,
2013-10-03 01:27:00,69.0,67.5,29.90,South,176,0.0,1.0,95,0.00,,---,0.00,VWS V14.01,2013-10-03 06:27:00,
2013-10-03 01:32:00,69.0,67.5,29.90,South,176,0.0,1.0,95,0.00,,---,0.00,VWS V14.01,2013-10-03 06:32:00,
2013-10-03 01:37:00,69.1,67.6,29.90,South,176,0.0,2.0,95,0.00,,---,0.00,VWS V14.01,2013-10-03 06:37:00,
2013-10-03 01:42:00,69.2,67.7,29.90,SSE,161,3.0,3.0,95,0.00,,---,0.00,VWS V14.01,2013-10-03 06:42:00,
2013-10-03 01:47:00,69.3,67.8,29.90,SSE,167,0.0,3.0,95,0.00,,---,0.00,VWS V14.01,2013-10-03 06:47:00,
2013-10-03 01:52:00,69.4,67.9,29.90,SSE,167,1.0,3.0,95,0.00,,---,0.00,VWS V14.01,2013-10-03 06:52:00,
2013-10-03 01:57:00,69.5,68.0,29.90,SSE,166,0.0,3.0,95,0.00,,---,0.00,VWS V14.01,2013-10-03 06:57:00,
2013-10-03 02:02:00,69.5,67.7,29.90,SSE,166,0.0,3.0,94,0.00,,---,0.00,VWS V14.01,2013-10-03 07:02:00,
2013-10-03 02:07:00,69.7,67.9,29.90,SSE,168,3.0,3.0,94,0.00,,---,0.00,VWS V14.01,2013-10-03 07:07:00,
2013-10-03 02:12:00,69.8,68.0,29.90,South,175,0.0,3.0,94,0.00,,---,0.00,VWS V14.01,2013-10-03 07:12:00,
2013-10-03 02:17:00,70.0,68.2,29.89,South,169,0.0,3.0,94,0.00,,---,0.00,VWS V14.01,2013-10-03 07:17:00,
2013-10-03 02:22:00,70.1,68.3,29.89,SSE,168,0.0,3.0,94,0.00,,---,0.00,VWS V14.01,2013-10-03 07:22:00,
2013-10-03 02:27:00,70.1,68.3,29.89,South,186,0.0,4.0,94,0.00,,---,0.00,VWS V14.01,2013-10-03 07:27:00,
2013-10-03 02:32:00,70.2,68.1,29.88,SE,146,0.0,4.0,93,0.00,,---,0.00,VWS V14.01,2013-10-03 07:32:00,
2013-10-03 02:36:00,70.3,68.2,29.88,South,171,0.0,4.0,93,0.00,,---,0.00,VWS V14.01,2013-10-03 07:36:00,
2013-10-03 02:42:00,70.3,68.2,29.88,SSE,167,0.0,4.0,93,0.00,,---,0.00,VWS V14.01,2013-10-03 07:42:00,
2013-10-03 02:47:00,70.4,68.3,29.88,SSE,167,0.0,4.0,93,0.00,,---,0.00,VWS V14.01,2013-10-03 07:47:00,
2013-10-03 02:52:00,70.4,68.3,29.88,SSE,167,0.0,4.0,93,0.00,,---,0.00,VWS V14.01,2013-10-03 07:52:00,
2013-10-03 02:57:00,70.3,68.2,29.88,SSE,167,0.0,4.0,93,0.00,,---,0.00,VWS V14.01,2013-10-03 07:57:00,
2013-10-03 03:02:00,70.2,68.1,29.88,SSE,167,0.0,4.0,93,0.00,,---,0.00,VWS V14.01,2013-10-03 08:02:00,
2013-10-03 03:07:00,70.1,68.0,29.88,SSE,167,0.0,0.0,93,0.00,,---,0.00,VWS V14.01,2013-10-03 08:07:00,
2013-10-03 03:12:00,70.0,67.9,29.88,SSE,167,0.0,0.0,93,0.00,,---,0.00,VWS V14.01,2013-10-03 08:12:00,
2013-10-03 03:17:00,69.9,67.8,29.88,SSE,167,0.0,0.0,93,0.00,,---,0.00,VWS V14.01,2013-10-03 08:17:00,
2013-10-03 03:22:00,69.8,67.7,29.88,SSE,167,0.0,0.0,93,0.00,,---,0.00,VWS V14.01,2013-10-03 08:22:00,
2013-10-03 03:27:00,69.8,67.7,29.88,SSE,167,0.0,0.0,93,0.00,,---,0.00,VWS V14.01,2013-10-03 08:27:00,
2013-10-03 03:32:00,69.7,67.6,29.89,SSE,167,0.0,0.0,93,0.00,,---,0.00,VWS V14.01,2013-10-03 08:32:00,
2013-10-03 03:37:00,69.6,67.8,29.89,SSE,167,0.0,0.0,94,0.00,,---,0.00,VWS V14.01,2013-10-03 08:37:00,
2013-10-03 03:41:00,69.5,67.7,29.89,SSE,167,0.0,0.0,94,0.00,,---,0.00,VWS V14.01,2013-10-03 08:41:00,
2013-10-03 03:46:00,69.5,67.7,29.89,SSE,167,0.0,0.0,94,0.00,,---,0.00,VWS V14.01,2013-10-03 08:46:00,
2013-10-03 03:51:00,69.4,67.6,29.89,SSE,167,0.0,0.0,94,0.00,,---,0.00,VWS V14.01,2013-10-03 08:51:00,
2013-10-03 03:56:00,69.4,67.6,29.89,SSE,167,0.0,1.0,94,0.00,,---,0.00,VWS V14.01,2013-10-03 08:56:00,
2013-10-03 04:01:00,69.4,67.6,29.89,SSE,167,0.0,2.0,94,0.00,,---,0.00,VWS V14.01,2013-10-03 09:01:00,
2013-10-03 04:06:00,69.4,67.6,29.89,SSE,167,0.0,0.0,94,0.00,,---,0.00,VWS V14.01,2013-10-03 09:06:00,
2013-10-03 04:11:00,69.5,68.0,29.89,SSE,167,0.0,2.0,95,0.00,,---,0.00,VWS V14.01,2013-10-03 09:11:00,
2013-10-03 04:16:00,69.5,68.0,29.88,SSE,167,0.0,2.0,95,0.00,,---,0.00,VWS V14.01,2013-10-03 09:16:00,
2013-10-03 04:21:00,69.5,68.0,29.88,SSE,167,0.0,2.0,95,0.00,,---,0.00,VWS V14.01,2013-10-03 09:21:00,
2013-10-03 04:26:00,69.6,68.1,29.88,SSE,167,0.0,2.0,95,0.00,,---,0.00,VWS V14.01,2013-10-03 09:26:00,
2013-10-03 04:31:00,69.6,68.1,29.89,SSE,167,0.0,2.0,95,0.00,,---,0.00,VWS V14.01,2013-10-03 09:31:00,
2013-10-03 04:36:00,69.6,68.1,29.89,SSE,166,0.0,2.0,95,0.00,,---,0.00,VWS V14.01,2013-10-03 09:36:00,
2013-10-03 04:41:00,69.7,68.2,29.89,SSE,166,0.0,3.0,95,0.00,,---,0.00,VWS V14.01,2013-10-03 09:41:00,
2013-10-03 04:46:00,69.7,68.2,29.88,SSE,166,0.0,3.0,95,0.00,,---,0.00,VWS V14.01,2013-10-03 09:46:00,
2013-10-03 04:51:00,69.7,68.2,29.88,SSE,166,0.0,3.0,95,0.00,,---,0.00,VWS V14.01,2013-10-03 09:51:00,
2013-10-03 04:56:00,69.7,68.2,29.88,SSE,166,0.0,3.0,95,0.00,,---,0.00,VWS V14.01,2013-10-03 09:56:00,
2013-10-03 05:01:00,69.7,68.2,29.89,SSE,166,0.0,3.0,95,0.00,,---,0.00,VWS V14.01,2013-10-03 10:01:00,
2013-10-03 05:06:00,69.7,68.2,29.89,SSE,165,0.0,0.0,95,0.00,,---,0.00,VWS V14.01,2013-10-03 10:06:00,
2013-10-03 05:11:00,69.7,68.2,29.89,SSE,165,1.0,2.0,95,0.00,,---,0.00,VWS V14.01,2013-10-03 10:11:00,
2013-10-03 05:16:00,69.7,68.2,29.90,SSE,165,0.0,3.0,95,0.00,,---,0.00,VWS V14.01,2013-10-03 10:16:00,
2013-10-03 05:21:00,69.8,68.3,29.90,SSE,165,0.0,3.0,95,0.00,,---,0.00,VWS V14.01,2013-10-03 10:21:00,
2013-10-03 05:26:00,69.8,68.3,29.90,SSE,165,0.0,3.0,95,0.00,,---,0.00,VWS V14.01,2013-10-03 10:26:00,
2013-10-03 05:31:00,69.8,68.3,29.90,SSE,165,0.0,3.0,95,0.00,,---,0.00,VWS V14.01,2013-10-03 10:31:00,
2013-10-03 05:36:00,69.8,68.3,29.90,SSE,165,0.0,1.0,95,0.00,,---,0.00,VWS V14.01,2013-10-03 10:36:00,
2013-10-03 05:41:00,69.8,68.3,29.90,SSE,165,0.0,1.0,95,0.00,,---,0.00,VWS V14.01,2013-10-03 10:41:00,
2013-10-03 05:46:00,69.8,68.3,29.90,SSE,165,0.0,1.0,95,0.00,,---,0.00,VWS V14.01,2013-10-03 10:46:00,
2013-10-03 05:51:00,69.7,68.2,29.90,SSE,165,0.0,1.0,95,0.00,,---,0.00,VWS V14.01,2013-10-03 10:51:00,
2013-10-03 05:56:00,69.7,68.2,29.90,SSE,165,0.0,1.0,95,0.00,,---,0.00,VWS V14.01,2013-10-03 10:56:00,
2013-10-03 06:01:00,69.6,68.1,29.90,SSE,165,0.0,1.0,95,0.00,,---,0.00,VWS V14.01,2013-10-03 11:01:00,
2013-10-03 06:06:00,69.6,68.1,29.90,SSE,165,0.0,0.0,95,0.00,,---,0.00,VWS V14.01,2013-10-03 11:06:00,
2013-10-03 06:12:00,69.6,68.1,29.90,SSE,165,0.0,0.0,95,0.00,,---,0.00,VWS V14.01,2013-10-03 11:12:00,
2013-10-03 06:16:00,69.5,68.0,29.91,SSE,165,0.0,0.0,95,0.00,,---,0.00,VWS V14.01,2013-10-03 11:16:00,
2013-10-03 06:22:00,69.4,67.9,29.91,SSE,165,0.0,0.0,95,0.00,,---,0.00,VWS V14.01,2013-10-03 11:22:00,
2013-10-03 06:27:00,69.5,68.0,29.91,SSE,165,0.0,0.0,95,0.00,,---,0.00,VWS V14.01,2013-10-03 11:27:00,
2013-10-03 06:32:00,69.4,67.9,29.91,SSE,165,0.0,0.0,95,0.00,,---,0.00,VWS V14.01,2013-10-03 11:32:00,
2013-10-03 06:37:00,69.4,67.9,29.91,SSE,165,0.0,1.0,95,0.00,,---,0.00,VWS V14.01,2013-10-03 11:37:00,
2013-10-03 06:42:00,69.4,67.9,29.91,SSE,165,0.0,1.0,95,0.00,,---,0.00,VWS V14.01,2013-10-03 11:42:00,
2013-10-03 06:47:00,69.4,67.9,29.91,SSE,165,0.0,1.0,95,0.00,,---,0.00,VWS V14.01,2013-10-03 11:47:00,
2013-10-03 06:52:00,69.4,67.9,29.91,SSE,165,0.0,1.0,95,0.00,,---,0.00,VWS V14.01,2013-10-03 11:52:00,
2013-10-03 06:57:00,69.3,67.8,29.91,SSE,165,0.0,1.0,95,0.00,,---,0.00,VWS V14.01,2013-10-03 11:57:00,
2013-10-03 07:02:00,69.3,67.8,29.91,SSE,165,0.0,2.0,95,0.00,,---,0.00,VWS V14.01,2013-10-03 12:02:00,
2013-10-03 07:07:00,69.3,67.8,29.91,SSE,165,0.0,0.0,95,0.00,,---,0.00,VWS V14.01,2013-10-03 12:07:00,
2013-10-03 07:12:00,69.3,67.8,29.91,SSE,165,0.0,1.0,95,0.00,,---,0.00,VWS V14.01,2013-10-03 12:12:00,
2013-10-03 07:17:00,69.3,67.8,29.92,SSE,165,0.0,1.0,95,0.00,,---,0.00,VWS V14.01,2013-10-03 12:17:00,
2013-10-03 07:22:00,69.3,67.8,29.92,SSE,165,0.0,1.0,95,0.00,,---,0.00,VWS V14.01,2013-10-03 12:22:00,
2013-10-03 07:27:00,69.4,68.2,29.92,SSE,165,0.0,1.0,96,0.00,,---,0.00,VWS V14.01,2013-10-03 12:27:00,
2013-10-03 07:32:00,69.4,68.2,29.92,SSE,166,0.0,1.0,96,0.00,,---,0.00,VWS V14.01,2013-10-03 12:32:00,
2013-10-03 07:37:00,69.5,68.3,29.92,SSE,165,0.0,0.0,96,0.00,,---,0.00,VWS V14.01,2013-10-03 12:37:00,
2013-10-03 07:42:00,69.6,68.4,29.92,SSE,166,0.0,1.0,96,0.00,,---,0.00,VWS V14.01,2013-10-03 12:42:00,
2013-10-03 07:47:00,69.7,68.5,29.92,SSE,165,0.0,1.0,96,0.00,,---,0.00,VWS V14.01,2013-10-03 12:47:00,
2013-10-03 07:52:00,69.8,68.6,29.92,SSE,165,0.0,1.0,96,0.00,,---,0.00,VWS V14.01,2013-10-03 12:52:00,
2013-10-03 07:57:00,69.9,68.7,29.92,SSE,166,0.0,1.0,96,0.00,,---,0.00,VWS V14.01,2013-10-03 12:57:00,
2013-10-03 08:02:00,70.0,68.8,29.92,SSE,166,0.0,1.0,96,0.00,,---,0.00,VWS V14.01,2013-10-03 13:02:00,
2013-10-03 08:07:00,70.1,68.9,29.92,SSE,161,0.0,4.0,96,0.00,,---,0.00,VWS V14.01,2013-10-03 13:07:00,
2013-10-03 08:12:00,70.2,69.0,29.92,SSE,161,1.0,4.0,96,0.00,,---,0.00,VWS V14.01,2013-10-03 13:12:00,
2013-10-03 08:17:00,70.4,69.2,29.93,SSE,166,0.0,4.0,96,0.00,,---,0.00,VWS V14.01,2013-10-03 13:17:00,
2013-10-03 08:22:00,70.6,69.1,29.93,SSE,167,0.0,4.0,95,0.00,,---,0.00,VWS V14.01,2013-10-03 13:22:00,
2013-10-03 08:27:00,70.8,69.3,29.93,SSE,167,0.0,4.0,95,0.00,,---,0.00,VWS V14.01,2013-10-03 13:27:00,
2013-10-03 08:32:00,71.1,69.6,29.93,SSE,167,0.0,4.0,95,0.00,,---,0.00,VWS V14.01,2013-10-03 13:32:00,
2013-10-03 08:37:00,71.3,69.8,29.93,SSE,157,0.0,4.0,95,0.00,,---,0.00,VWS V14.01,2013-10-03 13:37:00,
2013-10-03 08:42:00,71.3,69.5,29.93,SSE,161,0.0,4.0,94,0.00,,---,0.00,VWS V14.01,2013-10-03 13:42:00,
2013-10-03 08:47:00,71.5,69.7,29.93,SSE,165,0.0,4.0,94,0.00,,---,0.00,VWS V14.01,2013-10-03 13:47:00,
2013-10-03 08:52:00,71.9,69.8,29.93,SSE,159,1.0,4.0,93,0.00,,---,0.00,VWS V14.01,2013-10-03 13:52:00,
2013-10-03 08:57:00,72.2,70.1,29.93,SSE,155,0.0,4.0,93,0.00,,---,0.00,VWS V14.01,2013-10-03 13:57:00,
2013-10-03 09:02:00,72.5,70.1,29.93,SSE,161,0.0,4.0,92,0.00,,---,0.00,VWS V14.01,2013-10-03 14:02:00,
2013-10-03 09:07:00,73.0,70.2,29.93,SSE,159,2.0,5.0,91,0.00,,---,0.00,VWS V14.01,2013-10-03 14:07:00,
2013-10-03 09:12:00,73.5,70.4,29.93,SW,229,1.0,5.0,90,0.00,,---,0.00,VWS V14.01,2013-10-03 14:12:00,
2013-10-03 09:17:00,73.6,69.8,29.93,SSE,159,0.0,5.0,88,0.00,,---,0.00,VWS V14.01,2013-10-03 14:17:00,
2013-10-03 09:22:00,73.9,69.8,29.93,SSE,163,0.0,5.0,87,0.00,,---,0.00,VWS V14.01,2013-10-03 14:22:00,
2013-10-03 09:27:00,74.2,69.8,29.93,SSE,154,1.0,5.0,86,0.00,,---,0.00,VWS V14.01,2013-10-03 14:27:00,
2013-10-03 09:32:00,74.5,70.0,29.93,SSW,193,3.0,5.0,86,0.00,,---,0.00,VWS V14.01,2013-10-03 14:32:00,
2013-10-03 09:37:00,74.7,69.9,29.93,SSE,163,1.0,3.0,85,0.00,,---,0.00,VWS V14.01,2013-10-03 14:37:00,
2013-10-03 09:42:00,75.1,69.9,29.93,South,175,0.0,3.0,84,0.00,,---,0.00,VWS V14.01,2013-10-03 14:42:00,
2013-10-03 09:47:00,75.4,69.9,29.93,SSE,148,0.0,5.0,83,0.00,,---,0.00,VWS V14.01,2013-10-03 14:47:00,
2013-10-03 09:52:00,75.6,69.7,29.93,South,191,0.0,5.0,82,0.00,,---,0.00,VWS V14.01,2013-10-03 14:52:00,
2013-10-03 09:57:00,75.9,70.0,29.93,SSW,192,0.0,7.0,82,0.00,,---,0.00,VWS V14.01,2013-10-03 14:57:00,
2013-10-03 10:02:00,76.2,69.9,29.93,SSE,163,0.0,7.0,81,0.00,,---,0.00,VWS V14.01,2013-10-03 15:02:00,
2013-10-03 10:07:00,76.5,70.2,29.93,SSW,200,1.0,2.0,81,0.00,,---,0.00,VWS V14.01,2013-10-03 15:07:00,
2013-10-03 10:12:00,76.9,69.9,29.93,North,5,1.0,2.0,79,0.00,,---,0.00,VWS V14.01,2013-10-03 15:12:00,
2013-10-03 10:17:00,77.2,69.8,29.93,South,173,6.0,6.0,78,0.00,,---,0.00,VWS V14.01,2013-10-03 15:17:00,
2013-10-03 10:22:00,77.4,69.6,29.93,SSW,211,0.0,6.0,77,0.00,,---,0.00,VWS V14.01,2013-10-03 15:22:00,
2013-10-03 10:27:00,77.8,69.6,29.93,SW,217,0.0,6.0,76,0.00,,---,0.00,VWS V14.01,2013-10-03 15:27:00,
2013-10-03 10:32:00,78.3,69.3,29.92,West,279,0.0,6.0,74,0.00,,---,0.00,VWS V14.01,2013-10-03 15:32:00,
2013-10-03 10:37:00,78.7,69.3,29.92,SSW,210,0.0,3.0,73,0.00,,---,0.00,VWS V14.01,2013-10-03 15:37:00,
2013-10-03 10:42:00,79.2,69.4,29.92,SSW,198,1.0,5.0,72,0.00,,---,0.00,VWS V14.01,2013-10-03 15:42:00,
2013-10-03 10:47:00,79.5,69.3,29.91,SSW,192,0.0,5.0,71,0.00,,---,0.00,VWS V14.01,2013-10-03 15:47:00,
2013-10-03 10:52:00,79.8,69.2,29.91,South,190,0.0,5.0,70,0.00,,---,0.00,VWS V14.01,2013-10-03 15:52:00,
2013-10-03 10:57:00,79.8,68.7,29.91,South,175,0.0,5.0,69,0.00,,---,0.00,VWS V14.01,2013-10-03 15:57:00,
2013-10-03 11:02:00,80.2,69.1,29.91,SSW,212,1.0,5.0,69,0.00,,---,0.00,VWS V14.01,2013-10-03 16:02:00,
2013-10-03 11:07:00,80.5,69.0,29.91,South,179,0.0,13.0,68,0.00,,---,0.00,VWS V14.01,2013-10-03 16:07:00,
2013-10-03 11:12:00,80.7,68.7,29.91,SW,223,1.0,13.0,67,0.00,,---,0.00,VWS V14.01,2013-10-03 16:12:00,
2013-10-03 11:17:00,80.9,69.8,29.91,SE,136,1.0,13.0,69,0.00,,---,0.00,VWS V14.01,2013-10-03 16:17:00,
2013-10-03 11:22:00,80.7,68.7,29.91,South,178,2.0,13.0,67,0.00,,---,0.00,VWS V14.01,2013-10-03 16:22:00,
2013-10-03 11:27:00,81.0,68.6,29.91,SSE,167,1.0,13.0,66,0.00,,---,0.00,VWS V14.01,2013-10-03 16:27:00,
2013-10-03 11:32:00,81.1,67.8,29.90,SW,221,0.0,13.0,64,0.00,,---,0.00,VWS V14.01,2013-10-03 16:32:00,
2013-10-03 11:37:00,80.8,67.9,29.90,SSE,147,0.0,4.0,65,0.00,,---,0.00,VWS V14.01,2013-10-03 16:37:00,
2013-10-03 11:42:00,80.9,68.0,29.90,SSE,153,1.0,7.0,65,0.00,,---,0.00,VWS V14.01,2013-10-03 16:42:00,
2013-10-03 11:47:00,81.0,68.1,29.90,SW,214,0.0,8.0,65,0.00,,---,0.00,VWS V14.01,2013-10-03 16:47:00,
2013-10-03 11:52:00,81.5,68.2,29.90,SSW,193,0.0,8.0,64,0.00,,---,0.00,VWS V14.01,2013-10-03 16:52:00,
2013-10-03 11:57:00,82.0,68.2,29.90,South,184,0.0,8.0,63,0.00,,---,0.00,VWS V14.01,2013-10-03 16:57:00,
2013-10-03 12:02:00,82.2,68.8,29.90,ESE,107,1.0,15.0,64,0.00,,---,0.00,VWS V14.01,2013-10-03 17:02:00,
2013-10-03 12:07:00,82.0,68.2,29.90,SSE,155,7.0,12.0,63,0.00,,---,0.00,VWS V14.01,2013-10-03 17:07:00,
2013-10-03 12:12:00,81.8,68.4,29.90,South,180,0.0,12.0,64,0.00,,---,0.00,VWS V14.01,2013-10-03 17:12:00,
2013-10-03 12:17:00,81.9,68.5,29.90,SSE,155,0.0,12.0,64,0.00,,---,0.00,VWS V14.01,2013-10-03 17:17:00,
2013-10-03 12:22:00,82.7,70.2,29.90,West,260,0.0,12.0,66,0.00,,---,0.00,VWS V14.01,2013-10-03 17:22:00,
2013-10-03 12:27:00,82.8,68.5,29.90,SSE,148,0.0,12.0,62,0.00,,---,0.00,VWS V14.01,2013-10-03 17:27:00,
2013-10-03 12:32:00,83.1,69.2,29.89,SSE,159,0.0,12.0,63,0.00,,---,0.00,VWS V14.01,2013-10-03 17:32:00,
2013-10-03 12:37:00,83.3,68.9,29.89,SSE,163,0.0,8.0,62,0.00,,---,0.00,VWS V14.01,2013-10-03 17:37:00,
2013-10-03 12:42:00,83.2,67.4,29.89,South,175,0.0,10.0,59,0.00,,---,0.00,VWS V14.01,2013-10-03 17:42:00,
2013-10-03 12:47:00,83.4,68.1,29.89,SSE,152,1.0,10.0,60,0.00,,---,0.00,VWS V14.01,2013-10-03 17:47:00,
2013-10-03 12:52:00,83.7,67.4,29.89,South,171,1.0,10.0,58,0.00,,---,0.00,VWS V14.01,2013-10-03 17:52:00,
2013-10-03 12:57:00,84.2,68.8,29.89,SSW,198,1.0,10.0,60,0.00,,---,0.00,VWS V14.01,2013-10-03 17:57:00,
2013-10-03 13:02:00,84.5,68.6,29.88,South,182,1.0,10.0,59,0.00,,---,0.00,VWS V14.01,2013-10-03 18:02:00,
2013-10-03 13:07:00,84.5,68.1,29.88,SSE,161,0.0,9.0,58,0.00,,---,0.00,VWS V14.01,2013-10-03 18:07:00,
2013-10-03 13:12:00,84.5,68.1,29.88,SSE,163,0.0,9.0,58,0.00,,---,0.00,VWS V14.01,2013-10-03 18:12:00,
2013-10-03 13:17:00,85.0,68.1,29.88,South,180,4.0,9.0,57,0.00,,---,0.00,VWS V14.01,2013-10-03 18:17:00,
2013-10-03 13:22:00,85.0,67.6,29.88,SSE,156,3.0,9.0,56,0.00,,---,0.00,VWS V14.01,2013-10-03 18:22:00,
2013-10-03 13:27:00,84.3,66.9,29.88,South,169,4.0,11.0,56,0.00,,---,0.00,VWS V14.01,2013-10-03 18:27:00,
2013-10-03 13:32:00,84.1,68.2,29.87,SSE,151,0.0,11.0,59,0.00,,---,0.00,VWS V14.01,2013-10-03 18:32:00,
2013-10-03 13:37:00,84.0,67.7,29.87,WSW,242,0.0,5.0,58,0.00,,---,0.00,VWS V14.01,2013-10-03 18:37:00,
2013-10-03 13:42:00,84.4,68.0,29.87,SSE,157,1.0,5.0,58,0.00,,---,0.00,VWS V14.01,2013-10-03 18:42:00,
2013-10-03 13:47:00,84.2,67.3,29.86,SSE,157,0.0,8.0,57,0.00,,---,0.00,VWS V14.01,2013-10-03 18:47:00,
2013-10-03 13:52:00,84.3,68.4,29.86,South,178,0.0,8.0,59,0.00,,---,0.00,VWS V14.01,2013-10-03 18:52:00,
2013-10-03 13:57:00,84.9,69.5,29.86,SSE,157,0.0,8.0,60,0.00,,---,0.00,VWS V14.01,2013-10-03 18:57:00,
2013-10-03 14:02:00,84.8,68.4,29.86,SSE,148,0.0,10.0,58,0.00,,---,0.00,VWS V14.01,2013-10-03 19:02:00,
2013-10-03 14:07:00,84.5,68.1,29.86,SSE,165,0.0,6.0,58,0.00,,---,0.00,VWS V14.01,2013-10-03 19:07:00,
2013-10-03 14:12:00,84.8,68.9,29.86,South,190,0.0,6.0,59,0.00,,---,0.00,VWS V14.01,2013-10-03 19:12:00,
2013-10-03 14:17:00,84.5,68.6,29.86,South,176,0.0,8.0,59,0.00,,---,0.00,VWS V14.01,2013-10-03 19:17:00,
2013-10-03 14:22:00,83.9,67.6,29.86,SSE,161,0.0,9.0,58,0.00,,---,0.00,VWS V14.01,2013-10-03 19:22:00,
2013-10-03 14:27:00,83.6,68.3,29.86,SSW,201,0.0,9.0,60,0.00,,---,0.00,VWS V14.01,2013-10-03 19:27:00,
2013-10-03 14:32:00,84.0,69.1,29.86,SSW,200,0.0,9.0,61,0.00,,---,0.00,VWS V14.01,2013-10-03 19:32:00,
2013-10-03 14:37:00,84.9,69.0,29.86,South,178,1.0,4.0,59,0.00,,---,0.00,VWS V14.01,2013-10-03 19:37:00,
2013-10-03 14:42:00,85.6,68.6,29.86,SW,236,0.0,4.0,57,0.00,,---,0.00,VWS V14.01,2013-10-03 19:42:00,
2013-10-03 14:47:00,85.9,68.4,29.85,SW,218,2.0,7.0,56,0.00,,---,0.00,VWS V14.01,2013-10-03 19:47:00,
2013-10-03 14:52:00,85.9,68.4,29.85,SW,226,0.0,7.0,56,0.00,,---,0.00,VWS V14.01,2013-10-03 19:52:00,
2013-10-03 14:57:00,86.1,69.1,29.85,SW,221,0.0,7.0,57,0.00,,---,0.00,VWS V14.01,2013-10-03 19:57:00,
2013-10-03 15:02:00,86.5,67.9,29.85,South,188,1.0,7.0,54,0.00,,---,0.00,VWS V14.01,2013-10-03 20:02:00,
2013-10-03 15:07:00,86.3,67.7,29.85,South,190,0.0,6.0,54,0.00,,---,0.00,VWS V14.01,2013-10-03 20:07:00,
2013-10-03 15:12:00,86.5,67.9,29.85,South,180,0.0,6.0,54,0.00,,---,0.00,VWS V14.01,2013-10-03 20:12:00,
2013-10-03 15:17:00,85.8,68.3,29.84,SSW,206,0.0,11.0,56,0.00,,---,0.00,VWS V14.01,2013-10-03 20:17:00,
2013-10-03 15:22:00,85.9,68.9,29.84,NE,53,0.0,11.0,57,0.00,,---,0.00,VWS V14.01,2013-10-03 20:22:00,
2013-10-03 15:27:00,85.9,68.9,29.84,South,176,1.0,11.0,57,0.00,,---,0.00,VWS V14.01,2013-10-03 20:27:00,
2013-10-03 15:32:00,85.5,68.0,29.84,South,175,1.0,12.0,56,0.00,,---,0.00,VWS V14.01,2013-10-03 20:32:00,
2013-10-03 15:37:00,85.7,68.2,29.84,SSW,212,3.0,5.0,56,0.00,,---,0.00,VWS V14.01,2013-10-03 20:37:00,
2013-10-03 15:42:00,85.7,68.2,29.84,SSW,200,1.0,5.0,56,0.00,,---,0.00,VWS V14.01,2013-10-03 20:42:00,
2013-10-03 15:47:00,85.3,67.8,29.83,SSE,155,0.0,7.0,56,0.00,,---,0.00,VWS V14.01,2013-10-03 20:47:00,
2013-10-03 15:52:00,85.3,68.9,29.83,SSE,159,6.0,7.0,58,0.00,,---,0.00,VWS V14.01,2013-10-03 20:52:00,
2013-10-03 15:57:00,85.1,69.2,29.83,SW,215,2.0,7.0,59,0.00,,---,0.00,VWS V14.01,2013-10-03 20:57:00,
2013-10-03 16:02:00,85.1,69.2,29.83,South,178,0.0,7.0,59,0.00,,---,0.00,VWS V14.01,2013-10-03 21:02:00,
2013-10-03 16:07:00,85.4,69.0,29.83,SSE,164,0.0,3.0,58,0.00,,---,0.00,VWS V14.01,2013-10-03 21:07:00,
2013-10-03 16:12:00,85.1,68.7,29.83,SSW,213,2.0,6.0,58,0.00,,---,0.00,VWS V14.01,2013-10-03 21:12:00,
2013-10-03 16:17:00,84.1,67.7,29.83,SE,140,0.0,8.0,58,0.00,,---,0.00,VWS V14.01,2013-10-03 21:17:00,
2013-10-03 16:22:00,83.6,68.3,29.83,SSE,157,0.0,8.0,60,0.00,,---,0.00,VWS V14.01,2013-10-03 21:22:00,
2013-10-03 16:27:00,83.1,67.3,29.83,SSE,159,4.0,8.0,59,0.00,,---,0.00,VWS V14.01,2013-10-03 21:27:00,
2013-10-03 16:32:00,82.7,68.4,29.83,South,184,0.0,8.0,62,0.00,,---,0.00,VWS V14.01,2013-10-03 21:32:00,
2013-10-03 16:37:00,82.4,68.1,29.83,SSE,168,0.0,7.0,62,0.00,,---,0.00,VWS V14.01,2013-10-03 21:37:00,
2013-10-03 16:42:00,82.5,68.2,29.83,South,178,0.0,7.0,62,0.00,,---,0.00,VWS V14.01,2013-10-03 21:42:00,
2013-10-03 16:47:00,82.2,68.4,29.83,South,186,0.0,7.0,63,0.00,,---,0.00,VWS V14.01,2013-10-03 21:47:00,
2013-10-03 16:52:00,81.8,68.0,29.83,SSE,159,4.0,7.0,63,0.00,,---,0.00,VWS V14.01,2013-10-03 21:52:00,
2013-10-03 16:57:00,81.2,67.9,29.83,SE,136,0.0,7.0,64,0.00,,---,0.00,VWS V14.01,2013-10-03 21:57:00,
2013-10-03 17:02:00,80.9,68.5,29.83,South,182,0.0,10.0,66,0.00,,---,0.00,VWS V14.01,2013-10-03 22:02:00,
2013-10-03 17:07:00,80.7,68.3,29.83,SSE,155,4.0,5.0,66,0.00,,---,0.00,VWS V14.01,2013-10-03 22:07:00,
2013-10-03 17:12:00,80.5,68.1,29.83,South,169,0.0,5.0,66,0.00,,---,0.00,VWS V14.01,2013-10-03 22:12:00,
2013-10-03 17:17:00,80.3,67.9,29.83,SSW,192,0.0,5.0,66,0.00,,---,0.00,VWS V14.01,2013-10-03 22:17:00,
2013-10-03 17:22:00,80.2,67.8,29.83,SE,128,0.0,5.0,66,0.00,,---,0.00,VWS V14.01,2013-10-03 22:22:00,
2013-10-03 17:27:00,80.0,67.6,29.83,South,172,0.0,5.0,66,0.00,,---,0.00,VWS V14.01,2013-10-03 22:27:00,
2013-10-03 17:32:00,79.8,67.4,29.83,SSE,158,0.0,5.0,66,0.00,,---,0.00,VWS V14.01,2013-10-03 22:32:00,
2013-10-03 17:37:00,79.6,67.7,29.83,SSE,155,0.0,6.0,67,0.00,,---,0.00,VWS V14.01,2013-10-03 22:37:00,
2013-10-03 17:42:00,79.4,67.9,29.83,South,183,0.0,6.0,68,0.00,,---,0.00,VWS V14.01,2013-10-03 22:42:00,
2013-10-03 17:47:00,79.2,67.7,29.83,South,170,0.0,6.0,68,0.00,,---,0.00,VWS V14.01,2013-10-03 22:47:00,
2013-10-03 17:52:00,79.0,68.0,29.83,SSE,158,0.0,6.0,69,0.00,,---,0.00,VWS V14.01,2013-10-03 22:52:00,
2013-10-03 17:57:00,78.7,67.7,29.83,SSE,164,0.0,6.0,69,0.00,,---,0.00,VWS V14.01,2013-10-03 22:57:00,
2013-10-03 18:02:00,78.4,67.8,29.83,SSE,164,0.0,6.0,70,0.00,,---,0.00,VWS V14.01,2013-10-03 23:02:00,
2013-10-03 18:07:00,78.2,68.0,29.83,SSE,164,0.0,0.0,71,0.00,,---,0.00,VWS V14.01,2013-10-03 23:07:00,
2013-10-03 18:12:00,77.8,68.1,29.83,SSE,164,0.0,0.0,72,0.00,,---,0.00,VWS V14.01,2013-10-03 23:12:00,
2013-10-03 18:17:00,77.5,68.2,29.83,SSE,164,0.0,0.0,73,0.00,,---,0.00,VWS V14.01,2013-10-03 23:17:00,
2013-10-03 18:22:00,77.1,68.2,29.83,SSE,164,0.0,1.0,74,0.00,,---,0.00,VWS V14.01,2013-10-03 23:22:00,
2013-10-03 18:27:00,76.6,68.1,29.83,SSE,164,0.0,1.0,75,0.00,,---,0.00,VWS V14.01,2013-10-03 23:27:00,
2013-10-03 18:32:00,76.2,68.1,29.83,SSE,164,0.0,1.0,76,0.00,,---,0.00,VWS V14.01,2013-10-03 23:32:00,
2013-10-03 18:37:00,75.8,67.7,29.83,SSE,164,0.0,0.0,76,0.00,,---,0.00,VWS V14.01,2013-10-03 23:37:00,
2013-10-03 18:42:00,75.4,67.7,29.83,SSE,164,0.0,0.0,77,0.00,,---,0.00,VWS V14.01,2013-10-03 23:42:00,
2013-10-03 18:47:00,75.1,67.0,29.84,SSE,164,0.0,1.0,76,0.00,,---,0.00,VWS V14.01,2013-10-03 23:47:00,
2013-10-03 18:52:00,74.9,67.2,29.84,SSE,164,0.0,1.0,77,0.00,,---,0.00,VWS V14.01,2013-10-03 23:52:00,
2013-10-03 18:57:00,74.7,67.0,29.84,SSE,164,0.0,1.0,77,0.00,,---,0.00,VWS V14.01,2013-10-03 23:57:00,
2013-10-03 19:02:00,74.4,67.1,29.84,SSE,164,0.0,1.0,78,0.00,,---,0.00,VWS V14.01,2013-10-04 00:02:00,
2013-10-03 19:07:00,74.1,67.2,29.84,SSE,164,0.0,0.0,79,0.00,,---,0.00,VWS V14.01,2013-10-04 00:07:00,
2013-10-03 19:12:00,73.8,66.9,29.84,SSE,164,0.0,0.0,79,0.00,,---,0.00,VWS V14.01,2013-10-04 00:12:00,
2013-10-03 19:17:00,73.5,67.0,29.84,SSE,163,0.0,0.0,80,0.00,,---,0.00,VWS V14.01,2013-10-04 00:17:00,
2013-10-03 19:22:00,73.1,66.9,29.84,SSE,164,0.0,0.0,81,0.00,,---,0.00,VWS V14.01,2013-10-04 00:22:00,
2013-10-03 19:27:00,72.7,66.5,29.84,SSE,164,0.0,0.0,81,0.00,,---,0.00,VWS V14.01,2013-10-04 00:27:00,
2013-10-03 19:32:00,72.4,66.6,29.85,SSE,164,0.0,0.0,82,0.00,,---,0.00,VWS V14.01,2013-10-04 00:32:00,
2013-10-03 19:37:00,72.1,66.7,29.85,SSE,164,0.0,0.0,83,0.00,,---,0.00,VWS V14.01,2013-10-04 00:37:00,
2013-10-03 19:42:00,71.9,66.5,29.85,SSE,164,0.0,0.0,83,0.00,,---,0.00,VWS V14.01,2013-10-04 00:42:00,
2013-10-03 19:47:00,71.7,66.3,29.85,SSE,164,0.0,0.0,83,0.00,,---,0.00,VWS V14.01,2013-10-04 00:47:00,
2013-10-03 19:52:00,71.5,66.4,29.85,SSE,164,0.0,0.0,84,0.00,,---,0.00,VWS V14.01,2013-10-04 00:52:00,
2013-10-03 19:57:00,71.3,66.2,29.85,SSE,164,0.0,0.0,84,0.00,,---,0.00,VWS V14.01,2013-10-04 00:57:00,
2013-10-03 20:02:00,71.3,66.2,29.85,SSE,164,0.0,0.0,84,0.00,,---,0.00,VWS V14.01,2013-10-04 01:02:00,
2013-10-03 20:07:00,71.2,66.1,29.85,SSE,164,0.0,0.0,84,0.00,,---,0.00,VWS V14.01,2013-10-04 01:07:00,
2013-10-03 20:12:00,71.0,66.3,29.85,SSE,164,0.0,0.0,85,0.00,,---,0.00,VWS V14.01,2013-10-04 01:12:00,
2013-10-03 20:17:00,70.8,66.1,29.85,SSE,164,0.0,0.0,85,0.00,,---,0.00,VWS V14.01,2013-10-04 01:17:00,
2013-10-03 20:22:00,70.7,66.3,29.85,SSE,164,0.0,0.0,86,0.00,,---,0.00,VWS V14.01,2013-10-04 01:22:00,
2013-10-03 20:27:00,70.5,66.1,29.85,SSE,164,0.0,0.0,86,0.00,,---,0.00,VWS V14.01,2013-10-04 01:27:00,
2013-10-03 20:32:00,70.3,65.9,29.86,SSE,164,0.0,0.0,86,0.00,,---,0.00,VWS V14.01,2013-10-04 01:32:00,
2013-10-03 20:37:00,70.2,65.8,29.86,SSE,164,0.0,0.0,86,0.00,,---,0.00,VWS V14.01,2013-10-04 01:37:00,
2013-10-03 20:42:00,70.1,66.1,29.86,SSE,164,0.0,0.0,87,0.00,,---,0.00,VWS V14.01,2013-10-04 01:42:00,
2013-10-03 20:47:00,70.1,66.1,29.87,SSE,164,0.0,0.0,87,0.00,,---,0.00,VWS V14.01,2013-10-04 01:47:00,
2013-10-03 20:52:00,70.1,66.4,29.87,SSE,164,0.0,0.0,88,0.00,,---,0.00,VWS V14.01,2013-10-04 01:52:00,
2013-10-03 20:57:00,70.1,66.4,29.87,SSE,164,0.0,0.0,88,0.00,,---,0.00,VWS V14.01,2013-10-04 01:57:00,
2013-10-03 21:02:00,70.0,66.3,29.87,SSE,164,0.0,0.0,88,0.00,,---,0.00,VWS V14.01,2013-10-04 02:02:00,
2013-10-03 21:07:00,69.8,66.4,29.87,SSE,164,0.0,0.0,89,0.00,,---,0.00,VWS V14.01,2013-10-04 02:07:00,
2013-10-03 21:12:00,69.6,66.2,29.87,SSE,164,0.0,0.0,89,0.00,,---,0.00,VWS V14.01,2013-10-04 02:12:00,
2013-10-03 21:17:00,69.6,65.9,29.87,SSE,164,0.0,0.0,88,0.00,,---,0.00,VWS V14.01,2013-10-04 02:17:00,
2013-10-03 21:22:00,69.7,66.0,29.87,SSE,164,0.0,0.0,88,0.00,,---,0.00,VWS V14.01,2013-10-04 02:22:00,
2013-10-03 21:27:00,69.8,66.1,29.87,SSE,164,0.0,1.0,88,0.00,,---,0.00,VWS V14.01,2013-10-04 02:27:00,
2013-10-03 21:32:00,70.0,66.3,29.87,SSE,164,0.0,3.0,88,0.00,,---,0.00,VWS V14.01,2013-10-04 02:32:00,
2013-10-03 21:37:00,70.1,66.1,29.87,SSE,164,0.0,0.0,87,0.00,,---,0.00,VWS V14.01,2013-10-04 02:37:00,
2013-10-03 21:42:00,70.1,66.1,29.87,SSE,164,2.0,2.0,87,0.00,,---,0.00,VWS V14.01,2013-10-04 02:42:00,
2013-10-03 21:47:00,70.3,65.9,29.87,SSE,164,0.0,2.0,86,0.00,,---,0.00,VWS V14.01,2013-10-04 02:47:00,
2013-10-03 21:52:00,70.6,65.9,29.87,SSE,162,0.0,4.0,85,0.00,,---,0.00,VWS V14.01,2013-10-04 02:52:00,
2013-10-03 21:57:00,70.8,66.1,29.87,SSE,161,0.0,4.0,85,0.00,,---,0.00,VWS V14.01,2013-10-04 02:57:00,
2013-10-03 22:02:00,70.9,65.8,29.87,SSE,157,0.0,4.0,84,0.00,,---,0.00,VWS V14.01,2013-10-04 03:02:00,
2013-10-03 22:07:00,71.0,65.9,29.87,SSE,157,0.0,0.0,84,0.00,,---,0.00,VWS V14.01,2013-10-04 03:07:00,
2013-10-03 22:12:00,70.9,65.8,29.87,SSE,157,0.0,0.0,84,0.00,,---,0.00,VWS V14.01,2013-10-04 03:12:00,
2013-10-03 22:17:00,70.8,65.7,29.87,SSE,157,0.0,1.0,84,0.00,,---,0.00,VWS V14.01,2013-10-04 03:17:00,
2013-10-03 22:22:00,70.8,66.1,29.87,SSE,157,0.0,1.0,85,0.00,,---,0.00,VWS V14.01,2013-10-04 03:22:00,
2013-10-03 22:27:00,70.6,65.9,29.87,SSE,157,0.0,1.0,85,0.00,,---,0.00,VWS V14.01,2013-10-04 03:27:00,
2013-10-03 22:32:00,70.4,65.7,29.88,SSE,157,0.0,1.0,85,0.00,,---,0.00,VWS V14.01,2013-10-04 03:32:00,
2013-10-03 22:37:00,70.3,65.9,29.88,SSE,157,0.0,0.0,86,0.00,,---,0.00,VWS V14.01,2013-10-04 03:37:00,
2013-10-03 22:42:00,70.2,65.8,29.88,SSE,157,0.0,1.0,86,0.00,,---,0.00,VWS V14.01,2013-10-04 03:42:00,
2013-10-03 22:47:00,70.1,65.7,29.88,SSE,157,0.0,1.0,86,0.00,,---,0.00,VWS V14.01,2013-10-04 03:47:00,
2013-10-03 22:52:00,70.0,66.0,29.88,SSE,157,0.0,1.0,87,0.00,,---,0.00,VWS V14.01,2013-10-04 03:52:00,
2013-10-03 22:57:00,70.0,66.0,29.88,SSE,157,0.0,1.0,87,0.00,,---,0.00,VWS V14.01,2013-10-04 03:57:00,
2013-10-03 23:32:00,70.6,66.6,29.87,SSE,167,1.0,4.0,87,0.00,,---,0.00,VWS V14.01,2013-10-04 04:32:00,
2013-10-03 23:34:00,70.7,66.7,29.87,SSE,149,0.0,3.0,87,0.00,,---,0.00,VWS V14.01,2013-10-04 04:34:00,
2013-10-03 23:35:00,70.7,66.7,29.87,SSE,149,0.0,3.0,87,0.00,,---,0.00,VWS V14.01,2013-10-04 04:35:00,
2013-10-03 23:36:00,70.7,66.7,29.87,SSE,149,0.0,3.0,87,0.00,,---,0.00,VWS V14.01,2013-10-04 04:36:00,
2013-10-03 23:37:00,70.7,66.7,29.87,SSE,157,0.0,3.0,87,0.00,,---,0.00,VWS V14.01,2013-10-04 04:37:00,
2013-10-03 23:42:00,71.0,66.9,29.87,SSE,165,0.0,4.0,87,0.00,,---,0.00,VWS V14.01,2013-10-04 04:42:00,
2013-10-03 23:43:00,71.0,66.9,29.87,SSE,165,0.0,4.0,87,0.00,,---,0.00,VWS V14.01,2013-10-04 04:43:00,
2013-10-03 23:44:00,71.0,66.9,29.87,SSE,163,0.0,4.0,87,0.00,,---,0.00,VWS V14.01,2013-10-04 04:44:00,
2013-10-03 23:47:00,71.1,67.0,29.87,SE,145,0.0,4.0,87,0.00,,---,0.00,VWS V14.01,2013-10-04 04:47:00,
2013-10-03 23:48:00,71.1,67.0,29.87,SE,145,0.0,4.0,87,0.00,,---,0.00,VWS V14.01,2013-10-04 04:48:00,
2013-10-03 23:53:00,71.1,67.0,29.87,SE,145,0.0,4.0,87,0.00,,---,0.00,VWS V14.01,2013-10-04 04:53:00,
2013-10-03 23:54:00,71.1,67.0,29.87,SSE,159,1.0,6.0,87,0.00,,---,0.00,VWS V14.01,2013-10-04 04:54:00,
2013-10-03 23:55:00,71.2,67.1,29.87,SSE,159,0.0,6.0,87,0.00,,---,0.00,VWS V14.01,2013-10-04 04:55:00,
2013-10-03 23:58:00,71.2,67.1,29.87,SSE,159,0.0,6.0,87,0.00,,---,0.00,VWS V14.01,2013-10-04 04:58:00,
2013-10-03 23:59:00,71.2,67.1,29.87,SSE,159,0.0,6.0,87,0.00,,---,0.00,VWS V14.01,2013-10-04 04:59:00,